Location: São Paulo
(23.5507°S, 46.6334°W)
Time: 14:08:36
(UTC-03:00)

Tiros 1 - Pass Details

Date: 11 February 2026
Orbit: 618 x 649 km, 48.4° (Epoch: 11 March)

Event Time Altitude Azimuth Distance (km) Brightness Sun altitude
Rises 07:31:43 0° 241° (WSW) 2,964 10.1 21.6°
Reaches altitude 10° 07:34:25 10° 254° (WSW) 2,043 9.3 22.2°
Maximum altitude 07:38:12 24° 308° (NW) 1,319 8.5 23.0°
Drops below altitude 10° 07:41:57 10° 2° (N) 2,011 9.7 23.9°
Sets 07:44:35 0° 16° (NNE) 2,905 10.6 24.5°
